Tracking 22094 objects as of 17-Jan-2021
HD Live streaming from Space Station
objects crossing your sky now

MOVE-IIB

Track MOVE-IIB now!
10-day predictions
MOVE-IIB is classified as:


NORAD ID: 44398
Int'l Code: 2019-038N
Perigee: 516.0 km
Apogee: 552.1 km
Inclination: 97.6 °
Period: 95.2 minutes
Semi major axis: 6905 km
RCS: Unknown
Launch date: July 5, 2019
Source: (TBD)
Launch site: VOSTOCHNY COSMODROME (VOSTO)

Uplink (MHz):
Downlink (MHz): 145.840
Beacon (MHz):
Mode: 12k5bps QPSK
Call sign:
Status: Unknown

aabbcc
Your satellite tracking list
Your tracking list is empty




NASA's NSSDC Master Catalog

Two Line Element Set (TLE):
1 44398U 19038N   21016.89513909  .00001369  00000-0  80645-4 0  9999
2 44398  97.5633 341.8331 0026170 110.7062 249.6977 15.13039421 84846
Source of the keplerian elements: AFSPC